Location: Hope
(40.9110°N, 74.9680°W)
Time: 00:33:07
(UTC-04:00)

VELOX 1 - Pass Details

Date: 30 July 2021
Orbit: 626 x 643 km, 98.3° (Epoch: 19 September)

Event Time Altitude Azimuth Distance (km) Brightness Sun altitude
Exits shadow 03:37:36 - 142° (SE) 2,972 ? -21.1°
Rises 03:37:43 0° 141° (SE) 2,924 ? -21.1°
Reaches altitude 10° 03:40:04 10° 132° (SE) 2,022 ? -20.8°
Maximum altitude 03:43:58 32° 69° (ENE) 1,103 ? -20.3°
Drops below altitude 10° 03:47:55 10° 7° (N) 2,043 ? -19.8°
Sets 03:50:18 0° 357° (N) 2,959 ? -19.5°
